STARLINK-1191 (45222 NORAD) Tracking and Keplerian Element Data

This shows tracking and keplerian element data for the satellite.

Feedback or suggestion? Click here.




ElementValue
Catalog45222
NameSTARLINK-1191
Epoch Orbit2169
Epoch Day185.50001157
Epoch Year2020
RAAN322.5001
Inclination52.9997
Eccentricity0.0002048
Argument of Perigee83.9551
Mean Anonmoly222.5897
Mean Motion15.0560391
Decay Rate-0.00025317
L11 45222U 20012AW 20185.50001157 -.00025317 00000-0 -17234-2 0 9994
L22 45222 52.9997 322.5001 0002048 83.9551 222.5897 15.05603910 21699

Live tracking and technical data element details for STARLINK-1191 (NORAD 45222). STARLINK-1191 can be tracked NOW for your location showing map with azimuth and elevation plus other details from your city location.

Track the satellite on the map from your city or location and see movement details for azimuth, elevation, latitude, longitude, range, height, and movement on the map or in text.







IsCatalogInMostPopularTable: catalog: 45222, numindb: 26
Update: records affected: 1



GetName: 45222 STARLINK-1191

Hit Count: updated at: Fri, 03 Jul 2020 16:55:37 GMT